Tracking 25710 objects as of 6-Jul-2022
HD Live streaming from Space Station
objects crossing your sky now

FENGYUN 1C DEB

Track FENGYUN 1C DEB now!
10-day predictions


NORAD ID: 39537
Int'l Code: 1999-025EWE
Perigee: 840.8 km
Apogee: 1,129.0 km
Inclination: 99.1 °
Period: 104.6 minutes
Semi major axis: 7355 km
RCS: Unknown
Launch date: May 10, 1999
Source: People's Republic of China (PRC)
Launch site: Taiyaun Space Center, China (TSC)

Note: This is SATELLITE DEBRIS
aabbcc
Your satellite tracking list
Your tracking list is empty




NASA's NSSDC Master Catalog

Two Line Element Set (TLE):
1 39537U 99025EWE 22184.93969364  .00000716  00000-0  67525-3 0  9990
2 39537  99.0656   0.7384 0195858  90.8431 271.5165 13.76094266419114
Source of the keplerian elements: AFSPC